Location: Kalberh�ni
(46.4610°N, 7.2453°E)
Time: 04:50:25
(UTC+00:00)

Cosmos 2333 Rocket - Pass Details

Date: 30 October 2021
Orbit: 837 x 865 km, 70.8° (Epoch: 05 December)

Event Time Altitude Azimuth Distance (km) Brightness Sun altitude
Rises 18:51:08 0° 232° (SW) 3,394 6.0 -26.7°
Reaches altitude 10° 18:53:45 10° 240° (WSW) 2,467 5.3 -27.1°
Maximum altitude 18:58:58 37° 307° (NW) 1,308 3.6 -28.0°
Enters shadow 19:03:56 12° 13° (NNE) 2,390 4.5 -28.9°
